Retour au catalogue

STARLINK-30909

ActifCommunicationsVLEO
NORAD 58363·PAYLOAD·🇺🇸 United States

Lancé Nov 18, 2023 depuis Cape Canaveral Space Force Station

Loading…

Prochains Passages (prochaines 24 heures)

TLE

FraisSource: CelesTrak SupGP

Époque: Sep 15, 2026, 03:01 UTC

1 58363C 23177N   26258.12618056 -.00018451  00000+0 -66842-3 0  2584
2 58363  43.0037   0.7665 0001976 260.0871 304.1477 15.27580434    11

Suivez STARLINK-30909 en temps réel avec AllMySat

Download on the App Store